GW5671 Weather Reports


time (UTC)temp
F
wind
direction
speed
knots
gust
knots
rain 1hr
in
rain 24hr
in
rain mn
in
humidity
%
barometer
mb
20260510214005 46 353 5.2 11.3 0.00 0.00 0.00 71 1015.3
20260510213505 46 23 2.6 7.0 0.00 0.00 0.00 70 1015.1
20260510213003 46 41 2.6 3.5 0.00 0.00 0.00 69 1015.0
20260510212505 46 41 2.6 3.5 0.00 0.00 0.00 69 1015.0
20260510211505 47 40 1.7 3.5 0.00 0.00 0.00 68 1014.9
20260510211005 47 38 1.7 5.2 0.00 0.00 0.00 68 1015.0
20260510210503 47 28 1.7 5.2 0.00 0.00 0.00 69 1015.1
20260510205503 47 16 2.6 5.2 0.00 0.00 0.00 69 1015.1
20260510205005 47 11 3.5 6.1 0.00 0.00 0.00 69 1015.1
20260510204505 47 9 3.5 6.1 0.00 0.00 0.00 69 1015.2
20260510204003 48 11 3.5 7.0 0.00 0.00 0.00 69 1015.1
20260510203505 48 10 4.3 7.0 0.00 0.00 0.00 69 1015.1
20260510201505 48 10 4.3 7.0 0.00 0.00 0.00 67 1015.1
20260510201005 49 10 3.5 7.0 0.00 0.00 0.00 67 1015.1
20260510200503 50 16 2.6 4.3 0.00 0.00 0.00 65 1015.1
20260510200005 50 19 2.6 3.5 0.00 0.00 0.00 65 1015.1
20260510195505 51 24 2.6 4.3 0.00 0.00 0.00 63 1015.1
20260510195003 51 18 2.6 5.2 0.00 0.00 0.00 62 1015.0
20260510193503 53 17 2.6 6.1 0.00 0.00 0.00 60 1014.9
20260510193005 53 17 2.6 6.1 0.00 0.00 0.00 58 1015.1
20260510192503 53 20 1.7 9.6 0.00 0.00 0.00 58 1014.9
20260510192003 54 24 1.7 9.6 0.00 0.00 0.00 60 1014.9
20260510190503 53 357 6.1 9.6 0.00 0.00 0.00 60 1015.1
20260510190005 53 356 6.1 9.6 0.00 0.00 0.00 59 1015.0
20260510185505 53 357 7.0 10.4 0.00 0.00 0.00 61 1015.0
20260510185005 53 356 7.0 10.4 0.00 0.00 0.00 60 1015.1
20260510184005 53 360 7.0 13.0 0.00 0.00 0.00 60 1014.9
20260510183505 54 3 7.0 10.4 0.00 0.00 0.00 59 1015.0
20260510183003 54 7 7.0 13.0 0.00 0.00 0.00 57 1015.0
20260510182503 55 8 6.1 13.0 0.00 0.00 0.00 58 1015.0
20260510182005 55 8 5.2 9.6 0.00 0.00 0.00 57 1014.9
20260510181503 56 10 5.2 9.6 0.00 0.00 0.00 56 1014.9
20260510181003 57 22 5.2 9.6 0.00 0.00 0.00 55 1014.9
20260510180503 57 25 4.3 11.3 0.00 0.00 0.00 53 1014.8
20260510180005 57 10 4.3 11.3 0.00 0.00 0.00 54 1014.9
20260510175505 58 14 5.2 11.3 0.00 0.00 0.00 54 1014.9
20260510175003 58 25 4.3 9.6 0.00 0.00 0.00 55 1014.8
20260510174003 58 52 4.3 11.3 0.00 0.00 0.00 52 1015.0
20260510173503 58 52 5.2 11.3 0.00 0.00 0.00 50 1015.1
20260510173005 58 57 4.3 13.9 0.00 0.00 0.00 50 1015.1
20260510172505 59 59 4.3 13.9 0.00 0.00 0.00 50 1015.1
20260510172003 59 51 4.3 12.2 0.00 0.00 0.00 49 1015.3
20260510171503 59 39 4.3 10.4 0.00 0.00 0.00 54 1015.3
20260510171005 59 48 3.5 8.7 0.00 0.00 0.00 52 1015.3
20260510170503 59 44 2.6 8.7 0.00 0.00 0.00 52 1015.4
20260510170005 58 16 4.3 10.4 0.00 0.00 0.00 55 1015.5
20260510165505 57 6 5.2 10.4 0.00 0.00 0.00 59 1015.6
20260510165003 56 9 4.3 11.3 0.00 0.00 0.00 59 1015.6
20260510164505 56 18 5.2 11.3 0.00 0.00 0.00 56 1015.7
20260510163503 58 51 3.5 8.7 0.00 0.00 0.00 53 1015.8
20260510163005 58 43 3.5 8.7 0.00 0.00 0.00 54 1015.9
20260510162505 58 30 3.5 9.6 0.00 0.00 0.00 54 1015.8
20260510162003 57 39 4.3 9.6 0.00 0.00 0.00 58 1015.9
20260510161505 57 58 4.3 8.7 0.00 0.00 0.00 55 1015.9
20260510161005 58 63 4.3 9.6 0.00 0.00 0.00 56 1016.0
20260510160503 58 40 3.5 9.6 0.00 0.00 0.00 58 1016.0
20260510155505 56 27 4.3 10.4 0.00 0.00 0.00 59 1016.1
20260510155003 56 26 5.2 10.4 0.00 0.00 0.00 57 1016.1
20260510154003 57 26 4.3 10.4 0.00 0.00 0.00 57 1016.2
20260510153503 57 25 3.5 9.6 0.00 0.00 0.00 57 1016.2
20260510153005 56 18 3.5 9.6 0.00 0.00 0.00 62 1016.3
20260510152503 57 34 3.5 7.8 0.00 0.00 0.00 59 1016.4
20260510151503 57 41 3.5 8.7 0.00 0.00 0.00 60 1016.4
20260510145503 57 47 4.3 9.6 0.00 0.00 0.00 58 1016.8
20260510145005 57 55 4.3 9.6 0.00 0.00 0.00 59 1016.8
20260510144505 57 51 3.5 9.6 0.00 0.00 0.00 60 1016.8
20260510143003 57 35 3.5 11.3 0.00 0.00 0.00 62 1017.1
20260510142003 57 25 4.3 11.3 0.00 0.00 0.00 62 1017.1
20260510141505 57 33 4.3 12.2 0.00 0.00 0.00 65 1017.1
20260510140005 57 30 5.2 12.2 0.00 0.00 0.00 64 1017.3
20260510135005 57 24 5.2 11.3 0.00 0.00 0.00 66 1017.3
20260510134505 57 26 6.1 12.2 0.00 0.00 0.00 64 1017.2
20260510134003 57 41 5.2 12.2 0.00 0.00 0.00 65 1017.3
20260510133505 57 52 6.1 12.2 0.00 0.00 0.00 65 1017.4
20260510132505 56 63 4.3 13.0 0.00 0.00 0.00 66 1017.4
20260510132005 55 45 4.3 12.2 0.00 0.00 0.00 67 1017.5
20260510131503 55 32 5.2 12.2 0.00 0.00 0.00 67 1017.7
20260510131005 55 34 5.2 12.2 0.00 0.00 0.00 67 1017.8
20260510130505 55 50 5.2 10.4 0.00 0.00 0.00 69 1017.7
20260510125005 54 55 4.3 10.4 0.00 0.00 0.00 69 1017.8
20260510124503 54 49 4.3 13.0 0.00 0.00 0.00 69 1018.1
20260510124005 54 41 5.2 13.0 0.00 0.00 0.00 69 1018.0
20260510123503 54 31 5.2 12.2 0.00 0.00 0.00 70 1018.0
20260510122505 54 21 6.1 13.0 0.00 0.00 0.00 71 1018.1
20260510121503 53 57 4.3 11.3 0.00 0.00 0.00 71 1018.3
20260510121003 53 54 6.1 12.2 0.00 0.00 0.00 70 1018.4
20260510120505 53 41 5.2 12.2 0.00 0.00 0.00 72 1018.4
20260510120005 53 49 5.2 11.3 0.00 0.00 0.00 72 1018.5
20260510115003 52 38 4.3 12.2 0.00 0.00 0.00 73 1018.6
20260510114503 52 48 4.3 12.2 0.00 0.00 0.00 74 1018.7
20260510114005 52 53 4.3 13.9 0.00 0.00 0.00 73 1018.8
20260510113503 52 51 5.2 13.9 0.00 0.00 0.00 73 1018.8
20260510112007 52 41 5.2 9.6 0.00 0.00 0.00 75 1018.9
20260510111503 52 33 5.2 9.6 0.00 0.00 0.00 76 1019.0
20260510110505 51 20 6.1 11.3 0.00 0.00 0.00 76 1019.0
20260510105005 51 45 6.1 13.0 0.00 0.00 0.00 76 1019.1
20260510104503 51 41 5.2 13.0 0.00 0.00 0.00 76 1019.2
20260510103505 51 45 4.3 9.6 0.00 0.00 0.00 76 1019.3
20260510103003 51 52 4.3 11.3 0.00 0.00 0.00 78 1019.4
20260510102508 51 37 3.5 11.3 0.00 0.00 0.00 78 1019.3
20260510102003 51 24 4.3 11.3 0.00 0.00 0.00 78 1019.4
20260510101505 51 33 5.2 11.3 0.00 0.00 0.00 78 1019.3
20260510101003 51 29 5.2 13.0 0.00 0.00 0.00 79 1019.4
20260510100503 50 25 6.1 13.0 0.00 0.00 0.00 79 1019.4
20260510100004 50 24 6.1 13.0 0.00 0.00 0.00 80 1019.4
20260510095505 50 27 5.2 13.0 0.00 0.00 0.00 80 1019.3
20260510094505 50 35 4.3 10.4 0.00 0.00 0.00 81 1019.4
20260510093505 49 33 5.2 14.8 0.00 0.00 0.00 81 1019.5
20260510093003 49 26 5.2 14.8 0.00 0.00 0.00 82 1019.5
20260510092503 49 25 3.5 10.4 0.00 0.00 0.00 82 1019.5
20260510092005 49 34 3.5 11.3 0.00 0.00 0.00 83 1019.6
20260510091005 49 27 5.2 11.3 0.00 0.00 0.00 83 1019.7
20260510090503 49 13 5.2 11.3 0.00 0.00 0.00 83 1019.7
20260510090003 49 21 4.3 10.4 0.00 0.00 0.00 83 1019.8
20260510085505 49 41 4.3 10.4 0.00 0.00 0.00 83 1019.7
20260510084505 48 23 6.1 11.3 0.00 0.00 0.00 84 1019.8
20260510084005 48 26 5.2 11.3 0.00 0.00 0.00 84 1019.7
20260510083505 48 33 3.5 10.4 0.00 0.00 0.00 85 1019.7
20260510083003 48 35 2.6 7.8 0.00 0.00 0.00 85 1019.8
20260510082503 48 33 3.5 7.0 0.00 0.00 0.00 85 1019.8
20260510081005 48 30 3.5 7.8 0.00 0.00 0.00 85 1019.8
20260510080505 48 39 3.5 11.3 0.00 0.00 0.00 85 1019.9
20260510075505 48 50 5.2 12.2 0.00 0.00 0.00 85 1019.8
20260510075005 48 41 5.2 12.2 0.00 0.00 0.00 85 1019.9
20260510074503 48 33 3.5 12.2 0.00 0.00 0.00 85 1019.8
20260510074003 48 40 3.5 11.3 0.00 0.00 0.00 86 1019.8
20260510073505 48 46 4.3 12.2 0.00 0.00 0.00 86 1019.7
20260510072003 48 33 4.3 9.6 0.00 0.01 0.00 86 1019.7
20260510071505 48 37 4.3 10.4 0.00 0.01 0.00 86 1019.7
20260510071003 48 42 4.3 10.4 0.00 0.01 0.00 86 1019.7
20260510070505 48 38 5.2 14.8 0.00 0.01 0.00 86 1019.6
20260510070005 48 39 6.1 14.8 0.00 0.01 0.00 86 1019.6
20260510065503 48 44 5.2 13.0 0.00 0.01 0.00 87 1019.6
20260510065005 48 48 4.3 13.0 0.00 0.01 0.00 87 1019.5
20260510064505 48 47 4.3 11.3 0.00 0.01 0.00 87 1019.5
20260510064005 48 43 4.3 11.3 0.00 0.01 0.00 87 1019.6
20260510063505 48 37 3.5 11.3 0.00 0.01 0.00 87 1019.5
20260510062503 48 26 4.3 12.2 0.00 0.01 0.00 88 1019.4
20260510061005 48 36 5.2 14.8 0.00 0.01 0.00 88 1019.5
20260510060505 48 28 4.3 12.2 0.00 0.01 0.00 88 1019.5
20260510060003 48 43 4.3 10.4 0.00 0.01 0.00 88 1019.5
20260510055503 48 43 4.3 10.4 0.00 0.01 0.00 89 1019.3
20260510054005 48 42 4.3 13.0 0.00 0.01 0.00 89 1019.2
20260510053503 48 39 4.3 11.3 0.00 0.01 0.00 89 1019.2
20260510053003 48 36 4.3 10.4 0.00 0.01 0.00 89 1019.1
20260510052003 48 40 4.3 11.3 0.00 0.01 0.00 89 1019.3
20260510051505 48 36 4.3 11.3 0.00 0.01 0.00 89 1019.3
20260510050503 48 32 4.3 9.6 0.00 0.01 0.00 89 1019.3
20260510045503 48 19 6.1 12.2 0.00 0.01 0.00 88 1019.4
20260510043503 48 22 4.3 11.3 0.00 0.01 0.00 88 1019.5
20260510043005 48 24 4.3 11.3 0.00 0.01 0.00 88 1019.4
20260510042503 48 28 4.3 11.3 0.00 0.01 0.00 88 1019.5
20260510042003 48 30 3.5 10.4 0.00 0.01 0.00 88 1019.5
20260510040506 48 37 4.3 10.4 0.00 0.01 0.00 88 1019.6
20260510040003 48 36 4.3 10.4 0.00 0.01 0.00 88 1019.6
20260510035003 48 30 4.3 10.4 0.00 0.01 0.00 88 1019.6
20260510034505 48 37 4.3 11.3 0.00 0.01 0.00 88 1019.7
20260510034003 48 34 3.5 11.3 0.00 0.01 0.00 88 1019.7
20260510033503 48 15 2.6 7.0 0.00 0.01 0.00 89 1019.7
20260510033005 48 25 3.5 10.4 0.00 0.01 0.00 88 1019.7
20260510032503 48 32 3.5 10.4 0.00 0.01 0.00 89 1019.7
20260510031503 48 18 3.5 10.4 0.00 0.01 0.00 89 1019.8
20260510030004 48 8 4.3 9.6 0.00 0.01 0.00 89 1019.8
20260510025503 48 1 4.3 9.6 0.00 0.01 0.00 89 1019.8
20260510025005 49 2 5.2 11.3 0.00 0.01 0.00 89 1019.8
20260510024503 49 8 6.1 11.3 0.00 0.01 0.00 89 1019.8
20260510024004 49 7 6.1 9.6 0.00 0.01 0.00 89 1019.8
20260510023005 49 359 5.2 10.4 0.00 0.01 0.00 88 1019.8
20260510022503 49 4 6.1 11.3 0.00 0.01 0.00 88 1019.8
20260510022003 49 6 7.0 13.0 0.00 0.01 0.00 88 1019.8
20260510021503 49 9 7.0 13.0 0.00 0.01 0.00 88 1019.7
20260510021005 49 6 7.8 14.8 0.00 0.01 0.00 88 1019.8
20260510020505 49 5 7.0 14.8 0.00 0.01 0.00 88 1019.7
20260510020005 50 12 6.1 10.4 0.00 0.01 0.00 88 1019.7
20260510015003 50 16 3.5 8.7 0.00 0.01 0.00 88 1019.7
20260510014503 50 17 3.5 8.7 0.00 0.01 0.00 87 1019.8
20260510014005 50 10 2.6 7.8 0.00 0.01 0.00 87 1019.9
20260510013503 49 15 1.7 4.3 0.00 0.01 0.00 87 1019.8
20260510012003 50 25 2.6 7.8 0.00 0.01 0.00 86 1019.9
20260510011503 50 26 1.7 7.0 0.00 0.01 0.00 86 1019.9
20260510011003 50 25 1.7 4.3 0.00 0.01 0.00 86 1019.9
20260510010505 50 27 2.6 7.8 0.00 0.01 0.00 86 1020.0
20260510005005 50 20 2.6 6.1 0.00 0.01 0.00 86 1020.0
20260510004504 50 18 2.6 5.2 0.00 0.01 0.00 86 1019.9
20260510003004 50 15 4.3 9.6 0.00 0.01 0.00 85 1019.9
20260510002504 50 13 4.3 9.6 0.00 0.01 0.00 85 1019.8
20260510002005 50 9 3.5 9.6 0.00 0.01 0.00 85 1019.8
20260510001503 50 13 2.6 8.7 0.00 0.01 0.00 85 1019.8
20260510000505 50 11 4.3 7.8 0.00 0.01 0.00 85 1019.8
20260509235503 50 11 4.3 7.8 0.00 0.01 0.00 84 1019.8
20260509235005 51 3 3.5 7.8 0.00 0.01 0.00 84 1019.7
20260509234505 51 7 2.6 7.0 0.00 0.01 0.00 84 1019.7
20260509230004 52 1 3.5 7.0 0.00 0.01 0.00 83 1019.6
20260509225003 52 8 2.6 8.7 0.00 0.01 0.01 83 1019.5
20260509224505 52 17 3.5 10.4 0.00 0.01 0.01 83 1019.3
20260509223505 52 40 3.5 10.4 0.00 0.01 0.01 83 1019.3
20260509223003 52 34 4.3 10.4 0.00 0.01 0.01 83 1019.2
20260509222503 53 26 4.3 10.4 0.00 0.01 0.01 83 1019.3
20260509222003 53 34 5.2 12.2 0.00 0.01 0.01 83 1019.3
20260509221505 53 37 5.2 12.2 0.00 0.01 0.01 82 1019.1
20260509221005 53 36 4.3 11.3 0.00 0.01 0.01 83 1019.1
20260509220503 53 26 5.2 11.3 0.00 0.01 0.01 82 1019.3
20260509220003 53 23 5.2 10.4 0.00 0.01 0.01 82 1019.2
20260509215505 53 29 6.1 10.4 0.00 0.01 0.01 83 1019.1
20260509215003 53 31 6.1 11.3 0.00 0.01 0.01 82 1019.1
20260509214503 54 25 6.1 12.2 0.00 0.02 0.01 82 1019.1